,,,PA_Meas_PMT16A,,PR_Meas_QMR101_102,,RH_Meas_QMH101,,SR_Meas_QMS101,,TA_Meas_QMH101,,GenWind,,GenWind,
date,time,status,PA,status,PR,status,RH,status,SR,status,TA,status,DirAvg,status,SpdAvg,
2010-10-05, 00:00:04,VALID,1002.3,VALID,0,INVALID,145.597,VALID,104.485,VALID,24.9885,VALID,87,VALID,0.937109,
2010-10-05, 00:01:04,VALID,1002.26,VALID,0,INVALID,145.94,VALID,105.39,VALID,25.0293,VALID,63,VALID,1.36211,
2010-10-05, 00:02:04,VALID,1002.23,VALID,0,INVALID,146.047,VALID,107.401,VALID,25.0274,VALID,46,VALID,0.620313,
2010-10-05, 00:03:04,VALID,1002.23,VALID,0,INVALID,146.2,VALID,109.513,VALID,25.0858,VALID,28,VALID,0.994141,
2010-10-05, 00:04:04,VALID,1002.19,VALID,0,INVALID,146.49,VALID,111.424,VALID,25.045,VALID,27,VALID,1.89297,
2010-10-05, 00:05:04,VALID,1002.17,VALID,0,INVALID,146.963,VALID,113.334,VALID,25.0255,VALID,2,VALID,2.33125,
2010-10-05, 00:06:04,VALID,1002.19,VALID,0,INVALID,147.207,VALID,115.346,VALID,25.0663,VALID,62,VALID,1.42148,
2010-10-05, 00:07:04,VALID,1002.12,VALID,0,INVALID,147.276,VALID,117.156,VALID,25.1248,VALID,28,VALID,1.07656,
2010-10-05, 00:08:04,VALID,1002.1,VALID,0,INVALID,147.901,VALID,118.664,VALID,25.0858,VALID,28,VALID,2.02422,
2010-10-05, 00:09:04,VALID,1002.11,VALID,0,INVALID,148.077,VALID,120.173,VALID,25.1248,VALID,19,VALID,1.05352,
2010-10-05, 00:10:04,VALID,1002.05,VALID,0,INVALID,148.115,VALID,121.681,VALID,25.1832,VALID,67,VALID,0.639063,
2010-10-05, 00:11:04,VALID,1002.06,VALID,0,INVALID,148.222,VALID,123.592,VALID,25.1832,VALID,50,VALID,1.30625,
2010-10-05, 00:12:04,VALID,1002.07,VALID,0,INVALID,148.29,VALID,125.402,VALID,25.2221,VALID,22,VALID,1.60508,
2010-10-05, 00:13:04,VALID,1002.05,VALID,0,INVALID,148.435,VALID,127.212,VALID,25.2007,VALID,23,VALID,1.24336,
2010-10-05, 00:14:04,VALID,1002.02,VALID,0,INVALID,148.687,VALID,129.022,VALID,25.2416,VALID,15,VALID,1.93516,
2010-10-05, 00:15:04,VALID,1001.99,VALID,0,INVALID,148.756,VALID,130.933,VALID,25.2611,VALID,5,VALID,2.24688,
2010-10-05, 00:16:04,VALID,1002.02,VALID,0,INVALID,148.809,VALID,132.743,VALID,25.339,VALID,40,VALID,0.654688,
2010-10-05, 00:17:04,VALID,1002,VALID,0,INVALID,148.801,VALID,134.855,VALID,25.3584,VALID,18,VALID,0.841797,
2010-10-05, 00:18:04,VALID,1002,VALID,0,INVALID,148.824,VALID,136.866,VALID,25.3955,VALID,16,VALID,0.911719,
2010-10-05, 00:19:04,VALID,1002.01,VALID,0,INVALID,148.664,VALID,139.179,VALID,25.3779,VALID,61,VALID,1.59727,
2010-10-05, 00:20:04,VALID,1001.98,VALID,0,INVALID,148.649,VALID,141.492,VALID,25.4363,VALID,78,VALID,1.45352,
2010-10-05, 00:21:04,VALID,1001.99,VALID,0,INVALID,148.321,VALID,144.006,VALID,25.4753,VALID,39,VALID,2.19766,
2010-10-05, 00:22:04,VALID,1001.99,VALID,0,INVALID,148.328,VALID,146.621,VALID,25.5123,VALID,68,VALID,0.935156,
2010-10-05, 00:23:04,VALID,1001.96,VALID,0,INVALID,147.832,VALID,149.336,VALID,25.5318,VALID,19,VALID,1.70313,
2010-10-05, 00:24:04,VALID,1001.96,VALID,0,INVALID,147.146,VALID,151.951,VALID,25.5727,VALID,15,VALID,2.36914,
2010-10-05, 00:25:04,VALID,1001.93,VALID,0,INVALID,111.054,VALID,154.666,VALID,25.6506,VALID,77,VALID,1.91875,
2010-10-05, 00:26:04,VALID,1001.9,VALID,0,INVALID,119.888,VALID,157.18,VALID,25.709,VALID,32,VALID,1.40078,
2010-10-05, 00:27:04,VALID,1001.9,VALID,0,INVALID,121.475,VALID,159.895,VALID,25.7674,VALID,37,VALID,0.837891,
2010-10-05, 00:28:04,VALID,1001.88,VALID,0,INVALID,124.053,VALID,162.61,VALID,25.7655,VALID,54,VALID,0.423438,
2010-10-05, 00:29:04,VALID,1001.85,VALID,0,INVALID,118.286,VALID,165.527,VALID,25.785,VALID,310,VALID,0.715625,
2010-10-05, 00:30:04,VALID,1001.78,VALID,0,INVALID,115.509,VALID,168.443,VALID,25.8823,VALID,13,VALID,1.24727,
2010-10-05, 00:31:04,VALID,1001.76,VALID,0,INVALID,112.694,VALID,171.661,VALID,25.9408,VALID,31,VALID,1.08242,
2010-10-05, 00:32:04,VALID,1001.73,VALID,0,VALID,95.3076,VALID,174.879,VALID,25.9817,VALID,30,VALID,1.85547,
2010-10-05, 00:33:04,VALID,1001.72,VALID,0,VALID,93.3012,VALID,178.499,VALID,25.9992,VALID,24,VALID,1.41367,
2010-10-05, 00:34:04,VALID,1001.68,VALID,0,VALID,92.7748,VALID,182.22,VALID,26.0381,VALID,5,VALID,1.47656,
2010-10-05, 00:35:04,VALID,1001.69,VALID,0,VALID,93.3851,VALID,186.243,VALID,26.0985,VALID,69,VALID,1.2293,
2010-10-05, 00:36:04,VALID,1001.65,VALID,0,VALID,91.1651,VALID,190.567,VALID,26.1375,VALID,11,VALID,2.3457,
2010-10-05, 00:37:04,VALID,1001.62,VALID,0,VALID,93.5682,VALID,195.092,VALID,26.2154,VALID,343,VALID,1.44219,
2010-10-05, 00:38:04,VALID,1001.63,VALID,0,VALID,90.9286,VALID,200.02,VALID,26.2154,VALID,8,VALID,1.07773,
2010-10-05, 00:39:04,VALID,1001.61,VALID,0,VALID,89.4334,VALID,205.249,VALID,26.2349,VALID,20,VALID,2.86094,
2010-10-05, 00:40:04,VALID,1001.56,VALID,0,VALID,89.5402,VALID,210.579,VALID,26.2544,VALID,32,VALID,0.878906,
2010-10-05, 00:41:04,VALID,1001.57,VALID,0,VALID,90.1734,VALID,216.21,VALID,26.3518,VALID,14,VALID,0.86875,
2010-10-05, 00:42:04,VALID,1001.56,VALID,0,VALID,90.6998,VALID,221.842,VALID,26.3907,VALID,8,VALID,0.946094,
2010-10-05, 00:43:04,VALID,1001.54,VALID,0,VALID,89.6699,VALID,227.775,VALID,26.4317,VALID,16,VALID,0.890234,
2010-10-05, 00:44:04,VALID,1001.53,VALID,0,VALID,89.3876,VALID,234.01,VALID,26.4102,VALID,5,VALID,1.41328,
2010-10-05, 00:45:04,VALID,1001.52,VALID,0,VALID,88.8917,VALID,240.245,VALID,26.4297,VALID,24,VALID,1.70586,
2010-10-05, 00:46:04,VALID,1001.43,VALID,0,VALID,89.8377,VALID,246.58,VALID,26.4687,VALID,38,VALID,0.490625,
2010-10-05, 00:47:04,VALID,1001.44,VALID,0,VALID,88.7544,VALID,253.217,VALID,26.4881,VALID,44,VALID,0.763672,
2010-10-05, 00:48:04,VALID,1001.38,VALID,0,VALID,89.0367,VALID,260.156,VALID,26.5271,VALID,36,VALID,0.431641,
2010-10-05, 00:49:04,VALID,1001.34,VALID,0,VALID,89.1816,VALID,266.995,VALID,26.5661,VALID,354,VALID,1.14453,
2010-10-05, 00:50:04,VALID,1001.37,VALID,0,VALID,88.0678,VALID,273.933,VALID,26.5466,VALID,3,VALID,2.07109,
2010-10-05, 00:51:04,VALID,1001.35,VALID,0,VALID,89.4639,VALID,280.872,VALID,26.5855,VALID,26,VALID,0.625,
2010-10-05, 00:52:04,VALID,1001.31,VALID,0,VALID,89.4715,VALID,287.208,VALID,26.605,VALID,32,VALID,0.866797,
2010-10-05, 00:53:04,VALID,1001.31,VALID,0,VALID,89.8987,VALID,293.543,VALID,26.644,VALID,13,VALID,1.27695,
2010-10-05, 00:54:04,VALID,1001.25,VALID,0,VALID,87.5338,VALID,299.577,VALID,26.644,VALID,360,VALID,1.26719,
2010-10-05, 00:55:04,VALID,1001.28,VALID,0,VALID,88.701,VALID,305.309,VALID,26.683,VALID,48,VALID,1.04258,
2010-10-05, 00:56:04,VALID,1001.26,VALID,0,VALID,88.5713,VALID,310.74,VALID,26.7219,VALID,359,VALID,1.21328,
2010-10-05, 00:57:04,VALID,1001.25,VALID,0,VALID,88.3272,VALID,315.667,VALID,26.7804,VALID,69,VALID,0.787891,
2010-10-05, 00:58:04,VALID,1001.22,VALID,0,VALID,87.4956,VALID,320.394,VALID,26.8193,VALID,18,VALID,0.482031,
2010-10-05, 00:59:04,VALID,1001.18,VALID,0,VALID,87.7474,VALID,324.114,VALID,26.8778,VALID,14,VALID,0.550391,
2010-10-05, 01:00:04,VALID,1001.19,VALID,0,VALID,87.5643,VALID,328.338,VALID,26.9772,VALID,11,VALID,0.872266,
2010-10-05, 01:01:04,VALID,1001.17,VALID,0,VALID,86.7175,VALID,332.763,VALID,26.9557,VALID,37,VALID,0.665625,
2010-10-05, 01:02:04,VALID,1001.2,VALID,0,VALID,88.1441,VALID,337.288,VALID,27.0142,VALID,96,VALID,0.615234,
2010-10-05, 01:03:04,VALID,1001.18,VALID,0,VALID,87.5338,VALID,341.914,VALID,27.0726,VALID,116,VALID,0.882813,
2010-10-05, 01:04:04,VALID,1001.17,VALID,0,VALID,86.8167,VALID,345.635,VALID,27.0142,VALID,89,VALID,1.60352,
2010-10-05, 01:05:04,VALID,1001.23,VALID,0,VALID,87.488,VALID,347.646,VALID,27.0162,VALID,66,VALID,0.828125,
2010-10-05, 01:06:04,VALID,1001.26,VALID,0,VALID,88.8841,VALID,349.456,VALID,27.0726,VALID,92,VALID,0.85625,
2010-10-05, 01:07:04,VALID,1001.27,VALID,0,VALID,88.6323,VALID,350.562,VALID,27.0552,VALID,78,VALID,1.03125,
2010-10-05, 01:08:04,VALID,1001.28,VALID,0,VALID,88.1746,VALID,344.629,VALID,27.0747,VALID,72,VALID,0.812109,
2010-10-05, 01:09:04,VALID,1001.36,VALID,0,VALID,88.0068,VALID,320.997,VALID,27.0552,VALID,118,VALID,2.89687,
2010-10-05, 01:10:04,VALID,1001.42,VALID,0,VALID,88.0373,VALID,267.799,VALID,26.9752,VALID,100,VALID,1.15859,
2010-10-05, 01:11:04,VALID,1001.48,VALID,0,VALID,89.4028,VALID,209.473,VALID,26.9967,VALID,69,VALID,0.567187,
2010-10-05, 01:12:04,VALID,1001.51,VALID,0,VALID,89.2808,VALID,164.32,VALID,26.9772,VALID,100,VALID,1.5625,
2010-10-05, 01:13:04,VALID,1001.54,VALID,0,VALID,89.0443,VALID,132.542,VALID,26.9578,VALID,99,VALID,2.06211,
2010-10-05, 01:14:04,VALID,1001.48,VALID,0,VALID,89.8987,VALID,131.335,VALID,26.8973,VALID,91,VALID,0.941406,
2010-10-05, 01:15:04,VALID,1001.51,VALID,0,VALID,91.4092,VALID,130.33,VALID,26.8973,VALID,126,VALID,1.16523,
2010-10-05, 01:16:04,VALID,1001.46,VALID,0,VALID,93.9039,VALID,127.614,VALID,26.8778,VALID,136,VALID,2.05781,
2010-10-05, 01:17:04,VALID,1001.43,VALID,0,VALID,93.9954,VALID,108.809,VALID,26.7804,VALID,116,VALID,2.08633,
2010-10-05, 01:18:04,VALID,1001.41,VALID,0,VALID,97.0165,VALID,91.9145,VALID,26.683,VALID,142,VALID,1.9668,
2010-10-05, 01:19:04,VALID,1001.44,VALID,0.5,VALID,96.1773,VALID,85.9813,VALID,26.5466,VALID,149,VALID,3.39258,
2010-10-05, 01:20:04,VALID,1001.43,VALID,0.5,VALID,100.137,VALID,94.2275,VALID,26.2349,VALID,128,VALID,3.45234,
2010-10-05, 01:21:04,VALID,1001.34,VALID,0.5,INVALID,119.964,VALID,86.4841,VALID,25.9232,VALID,125,VALID,3.76563,
2010-10-05, 01:22:04,VALID,1001.42,VALID,0.5,INVALID,140.341,VALID,68.8856,VALID,25.6895,VALID,117,VALID,3.26289,
2010-10-05, 01:23:04,VALID,1001.69,VALID,0,INVALID,148.168,VALID,45.2533,VALID,25.6311,VALID,122,VALID,3.10078,
2010-10-05, 01:24:04,VALID,1001.77,VALID,0.5,INVALID,148.397,VALID,38.1134,VALID,25.4344,VALID,105,VALID,3.35273,
2010-10-05, 01:25:04,VALID,1001.9,VALID,0.5,INVALID,147.184,VALID,43.5438,VALID,25.1637,VALID,132,VALID,5.89922,
2010-10-05, 01:26:04,VALID,1002.04,VALID,1,INVALID,148.168,VALID,45.555,VALID,24.93,VALID,113,VALID,5.75703,
2010-10-05, 01:27:04,VALID,1002.04,VALID,1.5,INVALID,148.344,VALID,45.2533,VALID,24.7159,VALID,99,VALID,4.225,
2010-10-05, 01:28:04,VALID,1002.12,VALID,1,INVALID,148.13,VALID,43.946,VALID,24.599,VALID,97,VALID,3.61914,
2010-10-05, 01:29:04,VALID,1001.93,VALID,0.5,INVALID,148.26,VALID,45.2533,VALID,24.4043,VALID,81,VALID,5.57344,
2010-10-05, 01:30:04,VALID,1001.91,VALID,1,INVALID,147.855,VALID,46.3595,VALID,24.2875,VALID,91,VALID,4.42578,
2010-10-05, 01:31:04,VALID,1001.95,VALID,0.5,INVALID,147.428,VALID,45.555,VALID,24.2097,VALID,87,VALID,5.18047,
2010-10-05, 01:32:04,VALID,1001.88,VALID,0.5,INVALID,146.864,VALID,39.4207,VALID,24.1494,VALID,117,VALID,2.07461,
2010-10-05, 01:33:04,VALID,1001.89,VALID,0,INVALID,146.345,VALID,37.2083,VALID,24.1531,VALID,77,VALID,2.43867,
2010-10-05, 01:34:04,VALID,1002.06,VALID,0.5,INVALID,145.75,VALID,39.7224,VALID,24.1318,VALID,83,VALID,3.30664,
2010-10-05, 01:35:04,VALID,1001.95,VALID,0.5,INVALID,145.475,VALID,40.4263,VALID,24.0929,VALID,101,VALID,3.2168,
2010-10-05, 01:36:04,VALID,1001.96,VALID,0.5,INVALID,145.132,VALID,38.8173,VALID,24.0345,VALID,63,VALID,3.63477,
2010-10-05, 01:37:04,VALID,1002.01,VALID,0.5,INVALID,144.636,VALID,37.4094,VALID,24.0345,VALID,96,VALID,3.98828,
2010-10-05, 01:38:04,VALID,1002.01,VALID,0,INVALID,144.293,VALID,34.6942,VALID,24.015,VALID,112,VALID,2.72109,
2010-10-05, 01:39:04,VALID,1001.98,VALID,0.5,INVALID,144.117,VALID,34.5937,VALID,23.9955,VALID,110,VALID,2.40313,
2010-10-05, 01:40:04,VALID,1001.89,VALID,0.5,INVALID,144.117,VALID,33.3869,VALID,23.9566,VALID,91,VALID,4.36758,
2010-10-05, 01:41:04,VALID,1001.93,VALID,0.5,INVALID,144.01,VALID,32.3813,VALID,23.9371,VALID,102,VALID,3.67383,
2010-10-05, 01:42:04,VALID,1001.87,VALID,0,INVALID,143.782,VALID,31.3756,VALID,23.8964,VALID,70,VALID,2.88789,
2010-10-05, 01:43:04,VALID,1001.91,VALID,0.5,INVALID,143.621,VALID,29.8672,VALID,23.8982,VALID,97,VALID,4.65508,
2010-10-05, 01:44:04,VALID,1001.83,VALID,0,INVALID,143.4,VALID,30.7723,VALID,23.8575,VALID,29,VALID,2.56328,
2010-10-05, 01:45:04,VALID,1001.84,VALID,0,INVALID,143.392,VALID,31.3756,VALID,23.8787,VALID,79,VALID,2.94102,
2010-10-05, 01:46:04,VALID,1001.86,VALID,0.5,INVALID,143.469,VALID,32.4818,VALID,23.8769,VALID,96,VALID,4.12852,
2010-10-05, 01:47:04,VALID,1001.79,VALID,0,INVALID,143.53,VALID,32.7835,VALID,23.8982,VALID,61,VALID,1.91172,
2010-10-05, 01:48:04,VALID,1001.86,VALID,0,INVALID,143.591,VALID,33.1858,VALID,23.8982,VALID,91,VALID,2.33594,
2010-10-05, 01:49:04,VALID,1001.81,VALID,0,INVALID,143.782,VALID,34.7948,VALID,23.8982,VALID,86,VALID,3.96289,
2010-10-05, 01:50:04,VALID,1001.86,VALID,0,INVALID,143.782,VALID,35.8004,VALID,23.8964,VALID,95,VALID,2.06445,
2010-10-05, 01:51:04,VALID,1001.89,VALID,0,INVALID,144.72,VALID,36.6049,VALID,23.838,VALID,120,VALID,5.73594,
2010-10-05, 01:52:04,VALID,1001.86,VALID,0,INVALID,145.696,VALID,37.1077,VALID,23.838,VALID,96,VALID,2.62305,
2010-10-05, 01:53:04,VALID,1001.87,VALID,0,INVALID,146.49,VALID,38.0128,VALID,23.838,VALID,66,VALID,3.2418,
2010-10-05, 01:54:04,VALID,1001.97,VALID,0,INVALID,147.108,VALID,38.7167,VALID,23.8575,VALID,91,VALID,2.82383,
2010-10-05, 01:55:04,VALID,1001.84,VALID,0,INVALID,147.375,VALID,39.6218,VALID,23.8769,VALID,65,VALID,1.7082,
2010-10-05, 01:56:04,VALID,1001.96,VALID,0,INVALID,147.672,VALID,40.8286,VALID,23.8787,VALID,76,VALID,1.27227,
2010-10-05, 01:57:04,VALID,1001.92,VALID,0,INVALID,148.13,VALID,41.5325,VALID,23.8185,VALID,46,VALID,2.87656,
2010-10-05, 01:58:04,VALID,1002.05,VALID,0,INVALID,148.336,VALID,42.0353,VALID,23.8203,VALID,93,VALID,2.95586,
2010-10-05, 01:59:04,VALID,1002.02,VALID,0,INVALID,148.351,VALID,42.5381,VALID,23.7991,VALID,66,VALID,3.09687,
2010-10-05, 02:00:04,VALID,1002.09,VALID,0,INVALID,148,VALID,42.4376,VALID,23.8009,VALID,89,VALID,3.41094,
2010-10-05, 02:01:04,VALID,1002.06,VALID,0,INVALID,147.71,VALID,42.0353,VALID,23.7796,VALID,97,VALID,3.08437,
2010-10-05, 02:02:04,VALID,1002.12,VALID,0,INVALID,147.726,VALID,41.5325,VALID,23.7814,VALID,99,VALID,2.5543,
2010-10-05, 02:03:04,VALID,1002.06,VALID,0,INVALID,147.428,VALID,40.6274,VALID,23.8009,VALID,65,VALID,3.33242,
2010-10-05, 02:04:04,VALID,1002.08,VALID,0,INVALID,147.161,VALID,39.5212,VALID,23.7407,VALID,77,VALID,2.82031,
2010-10-05, 02:05:04,VALID,1002.04,VALID,0,INVALID,140.669,VALID,38.5156,VALID,23.7407,VALID,113,VALID,2.92227,
2010-10-05, 02:06:04,VALID,1002.04,VALID,0,INVALID,145.033,VALID,37.8117,VALID,23.7601,VALID,13,VALID,2.32617,
2010-10-05, 02:07:04,VALID,1002.14,VALID,0,INVALID,144.941,VALID,37.51,VALID,23.7601,VALID,107,VALID,1.88984,
2010-10-05, 02:08:04,VALID,1002.15,VALID,0,INVALID,131.499,VALID,37.4094,VALID,23.7601,VALID,93,VALID,3.54961,
2010-10-05, 02:09:04,VALID,1002.18,VALID,0,INVALID,124.313,VALID,37.4094,VALID,23.7796,VALID,72,VALID,1.94062,
2010-10-05, 02:10:04,VALID,1002.1,VALID,0,INVALID,109.07,VALID,37.4094,VALID,23.8185,VALID,96,VALID,2.46992,
2010-10-05, 02:11:04,VALID,1002.12,VALID,0,INVALID,112.427,VALID,37.6105,VALID,23.7796,VALID,57,VALID,1.61563,
2010-10-05, 02:12:04,VALID,1002.14,VALID,0,INVALID,117.264,VALID,38.2139,VALID,23.7601,VALID,84,VALID,1.67148,
2010-10-05, 02:13:04,VALID,1002.14,VALID,0,INVALID,128.669,VALID,38.9179,VALID,23.7212,VALID,56,VALID,1.56836,
2010-10-05, 02:14:04,VALID,1002.13,VALID,0,INVALID,111.961,VALID,39.7224,VALID,23.6823,VALID,71,VALID,3.06172,
2010-10-05, 02:15:04,VALID,1002.1,VALID,0,INVALID,113.014,VALID,40.5269,VALID,23.6841,VALID,33,VALID,1.49141,
2010-10-05, 02:16:04,VALID,1002.14,VALID,0,INVALID,133.627,VALID,41.2308,VALID,23.6452,VALID,63,VALID,1.4168,
2010-10-05, 02:17:04,VALID,1002.14,VALID,0,INVALID,116.737,VALID,41.4319,VALID,23.6257,VALID,43,VALID,2.18086,
2010-10-05, 02:18:04,VALID,1002.22,VALID,0,INVALID,135.794,VALID,40.5269,VALID,23.6239,VALID,66,VALID,0.748047,
2010-10-05, 02:19:04,VALID,1002.2,VALID,0,INVALID,120.75,VALID,39.5212,VALID,23.585,VALID,66,VALID,3.92969,
2010-10-05, 02:20:04,VALID,1002.19,VALID,0,INVALID,120.079,VALID,41.3314,VALID,23.5443,VALID,111,VALID,2.69102,
2010-10-05, 02:21:04,VALID,1002.25,VALID,0,INVALID,121.955,VALID,42.9404,VALID,23.5637,VALID,42,VALID,1.24453,
2010-10-05, 02:22:04,VALID,1002.26,VALID,0,INVALID,140.562,VALID,45.0522,VALID,23.5655,VALID,59,VALID,1.0707,
2010-10-05, 02:23:04,VALID,1002.25,VALID,0,INVALID,140.143,VALID,45.9573,VALID,23.546,VALID,59,VALID,1.45078,
2010-10-05, 02:24:04,VALID,1002.28,VALID,0,INVALID,139.876,VALID,48.5719,VALID,23.5053,VALID,85,VALID,1.85156,
2010-10-05, 02:25:04,VALID,1002.23,VALID,0,INVALID,138.716,VALID,49.2758,VALID,23.5266,VALID,106,VALID,2.14414,
2010-10-05, 02:26:04,VALID,1002.23,VALID,0,INVALID,143.873,VALID,49.2758,VALID,23.546,VALID,97,VALID,2.23867,
2010-10-05, 02:27:04,VALID,1002.21,VALID,0,INVALID,144.354,VALID,49.1753,VALID,23.4682,VALID,75,VALID,1.78047,
2010-10-05, 02:28:04,VALID,1002.2,VALID,0,INVALID,146.581,VALID,48.2702,VALID,23.4293,VALID,75,VALID,0.917578,
2010-10-05, 02:29:04,VALID,1002.14,VALID,0,INVALID,146.581,VALID,47.164,VALID,23.4116,VALID,84,VALID,1.87227,
2010-10-05, 02:30:04,VALID,1002.14,VALID,0.5,INVALID,147.245,VALID,46.3595,VALID,23.3921,VALID,78,VALID,1.85547,
2010-10-05, 02:31:04,VALID,1002.09,VALID,0,INVALID,147.55,VALID,45.7561,VALID,23.332,VALID,60,VALID,1.00859,
2010-10-05, 02:32:04,VALID,1002.11,VALID,0,INVALID,147.688,VALID,45.8567,VALID,23.3143,VALID,32,VALID,0.841797,
2010-10-05, 02:33:04,VALID,1002.05,VALID,0,INVALID,147.817,VALID,46.1584,VALID,23.2931,VALID,57,VALID,0.917578,
2010-10-05, 02:34:04,VALID,1002.01,VALID,0,INVALID,147.886,VALID,46.3595,VALID,23.3143,VALID,68,VALID,1.12148,
2010-10-05, 02:35:04,VALID,1002.1,VALID,0,INVALID,147.955,VALID,46.5606,VALID,23.3143,VALID,84,VALID,0.758984,
2010-10-05, 02:36:04,VALID,1002.04,VALID,0,INVALID,148,VALID,46.1584,VALID,23.2931,VALID,110,VALID,2.55156,
2010-10-05, 02:37:04,VALID,1002.01,VALID,0,INVALID,148.008,VALID,45.7561,VALID,23.3337,VALID,90,VALID,1.5457,
2010-10-05, 02:38:04,VALID,1002.05,VALID,0,INVALID,147.97,VALID,45.6556,VALID,23.332,VALID,60,VALID,0.832812,
2010-10-05, 02:39:04,VALID,1002.01,VALID,0,INVALID,148.008,VALID,45.7561,VALID,23.3337,VALID,86,VALID,1.34336,
2010-10-05, 02:40:04,VALID,1001.99,VALID,0,INVALID,147.962,VALID,46.5606,VALID,23.3337,VALID,81,VALID,2.15586,
2010-10-05, 02:41:04,VALID,1001.99,VALID,0.5,INVALID,147.848,VALID,47.5663,VALID,23.3727,VALID,92,VALID,1.69844,
2010-10-05, 02:42:04,VALID,1001.99,VALID,0,INVALID,147.787,VALID,49.7787,VALID,23.4134,VALID,44,VALID,1.13125,
2010-10-05, 02:43:04,VALID,1001.97,VALID,0,INVALID,147.81,VALID,51.086,VALID,23.4311,VALID,98,VALID,1.74414,
2010-10-05, 02:44:04,VALID,1002,VALID,0,INVALID,147.771,VALID,53.2984,VALID,23.4894,VALID,91,VALID,1.38906,
2010-10-05, 02:45:04,VALID,1001.9,VALID,0,INVALID,147.756,VALID,55.1085,VALID,23.5266,VALID,130,VALID,1.42461,
2010-10-05, 02:46:04,VALID,1001.93,VALID,0,INVALID,147.871,VALID,57.2203,VALID,23.5655,VALID,111,VALID,2.61016,
2010-10-05, 02:47:04,VALID,1001.92,VALID,0,INVALID,147.794,VALID,60.3378,VALID,23.6646,VALID,63,VALID,2.05273,
2010-10-05, 02:48:04,VALID,1001.92,VALID,0,INVALID,147.924,VALID,63.3547,VALID,23.7017,VALID,114,VALID,3.65625,
2010-10-05, 02:49:04,VALID,1001.9,VALID,0,INVALID,147.962,VALID,66.4721,VALID,23.8203,VALID,113,VALID,2.11992,
2010-10-05, 02:50:04,VALID,1001.89,VALID,0,INVALID,148.046,VALID,70.4946,VALID,23.8982,VALID,115,VALID,2.98438,
2010-10-05, 02:51:04,VALID,1001.87,VALID,0,INVALID,148.054,VALID,73.9138,VALID,23.9742,VALID,97,VALID,3.12891,
2010-10-05, 02:52:04,VALID,1001.75,VALID,0.5,INVALID,148.206,VALID,77.1318,VALID,24.091,VALID,20,VALID,1.86875,
2010-10-05, 02:53:04,VALID,1001.81,VALID,0,INVALID,148.328,VALID,80.5509,VALID,24.13,VALID,75,VALID,1.73906,
2010-10-05, 02:54:04,VALID,1001.82,VALID,0,INVALID,148.397,VALID,83.2661,VALID,24.1494,VALID,95,VALID,2.12891,
2010-10-05, 02:55:04,VALID,1001.79,VALID,0,INVALID,148.42,VALID,86.0819,VALID,24.2291,VALID,97,VALID,2.91055,
2010-10-05, 02:56:04,VALID,1001.79,VALID,0,INVALID,148.397,VALID,89.7021,VALID,24.2662,VALID,79,VALID,2.88516,
2010-10-05, 02:57:04,VALID,1001.76,VALID,0,INVALID,148.458,VALID,91.3112,VALID,24.3441,VALID,99,VALID,2.89375,
2010-10-05, 02:58:04,VALID,1001.71,VALID,0,INVALID,148.519,VALID,93.1213,VALID,24.3849,VALID,100,VALID,2.55547,
2010-10-05, 02:59:04,VALID,1001.65,VALID,0,INVALID,148.489,VALID,94.4286,VALID,24.383,VALID,122,VALID,1.17148,
2010-10-05, 03:00:04,VALID,1001.66,VALID,0,INVALID,148.527,VALID,95.032,VALID,24.4238,VALID,63,VALID,1.9668,
2010-10-05, 03:01:04,VALID,1001.7,VALID,0,INVALID,148.55,VALID,95.1325,VALID,24.4238,VALID,103,VALID,1.77422,
2010-10-05, 03:02:04,VALID,1001.72,VALID,0,INVALID,148.557,VALID,94.6297,VALID,24.4628,VALID,98,VALID,1.95078,
2010-10-05, 03:03:04,VALID,1001.79,VALID,0,INVALID,148.55,VALID,93.8252,VALID,24.4628,VALID,104,VALID,1.73359,
2010-10-05, 03:04:04,VALID,1001.72,VALID,0,INVALID,148.58,VALID,92.719,VALID,24.4822,VALID,113,VALID,1.70117,
2010-10-05, 03:05:04,VALID,1001.69,VALID,0,INVALID,148.527,VALID,91.3112,VALID,24.4998,VALID,49,VALID,1.11328,
2010-10-05, 03:06:04,VALID,1001.76,VALID,0,INVALID,148.588,VALID,90.0038,VALID,24.5193,VALID,105,VALID,0.882813,
2010-10-05, 03:07:04,VALID,1001.71,VALID,0,INVALID,148.649,VALID,88.2943,VALID,24.5388,VALID,90,VALID,2.76602,
2010-10-05, 03:08:04,VALID,1001.73,VALID,0,INVALID,148.611,VALID,87.4898,VALID,24.5972,VALID,102,VALID,2.36602,
2010-10-05, 03:09:04,VALID,1001.73,VALID,0,INVALID,148.527,VALID,87.4898,VALID,24.6185,VALID,104,VALID,2.23359,
2010-10-05, 03:10:04,VALID,1001.76,VALID,0,INVALID,148.527,VALID,86.3836,VALID,24.638,VALID,78,VALID,1.62812,
2010-10-05, 03:11:04,VALID,1001.71,VALID,0,INVALID,148.595,VALID,85.3779,VALID,24.6593,VALID,69,VALID,1.65391,
2010-10-05, 03:12:04,VALID,1001.66,VALID,0,INVALID,148.572,VALID,85.3779,VALID,24.638,VALID,62,VALID,2.01406,
2010-10-05, 03:13:04,VALID,1001.68,VALID,0,INVALID,148.58,VALID,84.7746,VALID,24.6574,VALID,85,VALID,2.20469,
2010-10-05, 03:14:04,VALID,1001.62,VALID,0,INVALID,148.572,VALID,82.7633,VALID,24.6769,VALID,108,VALID,2.01367,
2010-10-05, 03:15:04,VALID,1001.65,VALID,0,INVALID,148.458,VALID,76.1262,VALID,24.7159,VALID,103,VALID,4.08867,
2010-10-05, 03:16:04,VALID,1001.64,VALID,0,INVALID,148.366,VALID,72.5059,VALID,24.7743,VALID,70,VALID,1.25273,
2010-10-05, 03:17:04,VALID,1001.63,VALID,0,INVALID,148.405,VALID,81.1543,VALID,24.7937,VALID,87,VALID,1.71094,
2010-10-05, 03:18:04,VALID,1001.56,VALID,0,INVALID,148.199,VALID,82.6627,VALID,24.8132,VALID,73,VALID,2.13047,
2010-10-05, 03:19:04,VALID,1001.63,VALID,0,INVALID,148.145,VALID,84.674,VALID,24.8716,VALID,93,VALID,2.275,
2010-10-05, 03:20:04,VALID,1001.58,VALID,0,INVALID,148.26,VALID,84.3723,VALID,24.8697,VALID,102,VALID,1.87656,
2010-10-05, 03:21:04,VALID,1001.58,VALID,0,INVALID,147.131,VALID,83.065,VALID,24.93,VALID,109,VALID,2.14375,
2010-10-05, 03:22:04,VALID,1001.64,VALID,0,INVALID,145.895,VALID,79.3442,VALID,24.969,VALID,98,VALID,1.99727,
2010-10-05, 03:23:04,VALID,1001.59,VALID,0,INVALID,141.813,VALID,72.2042,VALID,25.0274,VALID,86,VALID,2.11016,
2010-10-05, 03:24:04,VALID,1001.62,VALID,0,INVALID,131.438,VALID,62.0473,VALID,25.0644,VALID,77,VALID,2.73945,
2010-10-05, 03:25:04,VALID,1001.62,VALID,0,INVALID,127.921,VALID,59.5333,VALID,25.1053,VALID,85,VALID,2.07695,
2010-10-05, 03:26:04,VALID,1001.55,VALID,0,INVALID,121.337,VALID,65.4665,VALID,25.1248,VALID,79,VALID,1.95469,
2010-10-05, 03:27:04,VALID,1001.6,VALID,0,INVALID,132.704,VALID,66.3715,VALID,25.1442,VALID,101,VALID,2.16406,
2010-10-05, 03:28:04,VALID,1001.55,VALID,0,INVALID,129.66,VALID,50.5832,VALID,25.1248,VALID,72,VALID,1.47461,
2010-10-05, 03:29:04,VALID,1001.53,VALID,0,INVALID,128.356,VALID,44.6499,VALID,25.1248,VALID,103,VALID,2.43906,
2010-10-05, 03:30:04,VALID,1001.55,VALID,0,INVALID,135.26,VALID,43.4432,VALID,25.1442,VALID,87,VALID,1.87734,
2010-10-05, 03:31:04,VALID,1001.55,VALID,0,INVALID,127.509,VALID,45.9573,VALID,25.1832,VALID,99,VALID,2.4957,
2010-10-05, 03:32:04,VALID,1001.56,VALID,0,INVALID,130.301,VALID,60.74,VALID,25.1832,VALID,89,VALID,3,